Regional Weather Roundup
Issued by NWS Memphis, TN

Home | Current Version | Previous Version | Text Only | Print | Product List | Glossary On
Versions: 1 2 3 4 5 6 7 8 9 10 11 12 13 14 15 16 17 18 19 20 21 22 23 24 25 26 27 28 29 30 31 32 33 34 35 36 37 38 39 40 41 42 43 44 45 46 47 48 49 50
000
ASUS44 KMEG 261610
RWRMEG
MEMPHIS CWA HOURLY WEATHER ROUNDUP
NATIONAL WEATHER SERVICE MEMPHIS TN
1000 AM CST SUN FEB 26 2017

...WEST TENNESSEE...

CITY           SKY/WX    TMP DP  RH WIND       PRES   REMARKS
MEMPHIS INTL   MOSUNNY   48  20  32 SE12      30.20R
NWS MEMPHIS      N/A     48 N/A N/A MISG        N/A
JACKSON        SUNNY     45  21  38 SE8G16    30.22S
BOLIVAR        SUNNY     45  21  39 SE12G17   30.20S
SAVANNAH       SUNNY     45  19  36 SE12      30.22F
UNION CITY     SUNNY     45  14  29 S6G15     30.20S
PARIS          SUNNY     39  21  48 SE12      30.22S WCI  32
HUNTINGDON     SUNNY     43  23  45 SE9G15    30.21R


...EASTERN ARKANSAS...

CITY           SKY/WX    TMP DP  RH WIND       PRES   REMARKS
JONESBORO      SUNNY     46  27  47 S14       30.19S
WEST MEMPHIS   SUNNY     47  22  37 S14       30.20R
BATESVILLE     PTSUNNY   46  21  36 SE9       30.18R
NEWPORT        SUNNY     47  26  44 MISG      30.19R
WALNUT RIDGE   SUNNY     46  25  42 S13G20    30.20R
BLYTHEVILLE    SUNNY     45  24  43 SE13      30.20F
SEARCY         SUNNY     48  28  46 SE14      30.18F
STUTTGART      SUNNY     46  21  36 SE15      30.18S
PINE BLUFF     SUNNY     47  30  51 SE16      30.17R
MONTICELLO     SUNNY     50  25  37 SE8       30.16S


...NORTH MISSISSIPPI...

CITY           SKY/WX    TMP DP  RH WIND       PRES   REMARKS
TUPELO         SUNNY     47  18  31 E7        30.21F
OXFORD         SUNNY     46  19  34 E10       30.21F
BATESVILLE     SUNNY     48  22  35 SE8       30.20F
OLIVE BRANCH   MOSUNNY  N/A N/A N/A SE12      30.19R
TUNICA         SUNNY     46  25  42 SE8       30.21R
CORINTH        SUNNY     46  19  34 SE9G16    30.21F
GREENWOOD      SUNNY     50  18  28 E13       30.18S
COLUMBUS       SUNNY     49  27  42 SE12      30.22S
STARKVILLE     SUNNY     46  27  46 SE9       30.24S
GOLDEN TRIANGL SUNNY     46  23  39 SE9       30.20R


...SOUTHEAST MISSOURI...

CITY           SKY/WX    TMP DP  RH WIND       PRES   REMARKS
KENNETT        SUNNY     46  27  46 S16       30.19F
MALDEN         SUNNY     45  27  49 SE14      30.20F
WEST PLAINS    CLOUDY    40  20  44 S13       30.15R WCI  32
POPLAR BLUFF   MOSUNNY   42  27  55 S13       30.20R
CAPE GIRARDEAU SUNNY     42  21  43 SE13      30.19S


...NORTHWEST ALABAMA...

CITY           SKY/WX    TMP DP  RH WIND       PRES   REMARKS
MUSCLE SHOALS  SUNNY     45  23  42 SE12      30.25F


...MIDDLE TENNESSEE...

CITY           SKY/WX    TMP DP  RH WIND       PRES   REMARKS
NASHVILLE      MOSUNNY   44  19  36 S13       30.27R
CLARKSVILLE    SUNNY     41  20  43 SE6       30.24R
COLUMBIA       SUNNY     43  25  49 S7        30.23F


...WESTERN KENTUCKY...

CITY           SKY/WX    TMP DP  RH WIND       PRES   REMARKS
PADUCAH        SUNNY     43  20  39 SE12      30.21S
FORT CAMPBELL  SUNNY     42  17  36 SE9       30.22F


...CENTRAL ARKANSAS...

CITY           SKY/WX    TMP DP  RH WIND       PRES   REMARKS
LITTLE ROCK    MOSUNNY   48  28  46 SE17      30.16S


SKY/WX REPORTED AS FAIR MEANS FEW OR NO CLOUDS BELOW
12 THOUSAND FEET.





USA.gov is the U.S. government's official web portal to all federal, state and local government web resources and services.